Regional Weather Roundup
Issued by NWS

Home | Current Version | Previous Version | Text Only | Print | Product List | Glossary Off
Versions: 1 2 3 4 5 6 7 8 9 10 11 12 13 14 15 16 17 18 19 20 21 22 23 24 25 26 27 28 29 30 31 32 33 34 35 36 37 38 39 40 41 42 43 44 45 46 47 48 49 50

000
ASUS43 KLOT 060003
RWRIL

ILLINOIS REGIONAL WEATHER ROUNDUP
NATIONAL WEATHER SERVICE CHICAGO/ROMEOVILLE IL
600 PM CST MON DEC 05 2016

NOTE: "FAIR" INDICATES FEW OR NO CLOUDS BELOW 12,000 FEET WITH NO
SIGNIFICANT WEATHER AND/OR OBSTRUCTIONS TO VISIBILITY.

* THESE STATIONS ARE NOT UNDER NWS QUALITY CONTROL. THEY ALSO MAY NOT
  REPORT WEATHER SUCH AS PRECIPITATION OR FOG.

ILZ001-002-007-009-015-016-024-060100-
NORTHWEST ILLINOIS

CITY           SKY/WX    TMP DP  RH WIND       PRES   REMARKS
MOLINE         CLOUDY    35  31  85 SE8       29.93R FOG     WCI  29
6HR MIN TEMP:  34; 6HR MAX TEMP:  36;

STERLING*      CLOUDY    32  31  96 E10       29.95S WCI  24
$$

ILZ003-004-008-010-011-017-018-060100-
NORTH CENTRAL ILLINOIS

CITY           SKY/WX    TMP DP  RH WIND       PRES   REMARKS
ROCKFORD       CLOUDY    32  30  92 SE9       29.98F FOG     WCI  24
6HR MIN TEMP:  31; 6HR MAX TEMP:  33;

FREEPORT*      CLOUDY    32  31  98 SE9       29.95F FOG     WCI  24
ROCHELLE*      CLOUDY    31  30  98 SE9       29.96S FOG     WCI  23
$$

ILZ005-006-012>014-019>023-060100-
NORTHEAST ILLINOIS

CITY           SKY/WX    TMP DP  RH WIND       PRES   REMARKS
CHICAGO-OHARE  CLOUDY    32  30  92 S9        29.98F FOG     WCI  24
6HR MIN TEMP:  32; 6HR MAX TEMP:  32;

CHICAGO-MIDWAY CLOUDY    33  29  85 SE6       30.00S WCI  28
6HR MIN TEMP:  33; 6HR MAX TEMP:  34;

AURORA         CLOUDY    33  30  88 E10       29.97F FOG     WCI  25
6HR MIN TEMP:  32; 6HR MAX TEMP:  33;

LANSING*       CLOUDY    32  32  99 SE6       30.00S WCI  26
WAUKEGAN       CLOUDY    32  31  96 S3        29.97F FOG
6HR MIN TEMP:  32; 6HR MAX TEMP:  33;

DUPAGE AIRPORT CLOUDY    32  28  85 SE7       29.97S FOG     WCI  26
6HR MIN TEMP:  31; 6HR MAX TEMP:  33;

WHEELING       CLOUDY    33  30  88 S7        30.00F WCI  27
6HR MIN TEMP:  32; 6HR MAX TEMP:  33;

NORTHERLY ISL    N/A     33  31  92 S5          N/A  WCI  29
$$

LMZ740>746-060100-
SOUTHERN LAKE MICHIGAN

STATION/POSITION SKY/WX   TEMP    WIND        PRES    VSBY  WAVE
                          AIR SEA DIR/SP/G                  HT/PER
                          (F)     (DEG/KT/KT) (MB)    (MI)  (FT/S)
HARRISON CRIB              35     180/ 10/ 12   N/A
BURNHAM HARBOR             33     190/  5/  6   N/A
CALUMET HARBOR             32     160/  5/  6 1015.3F
BURNS HARBOR               33     150/  6/  9 1016.6F
$$

ILZ025>027-034>036-040-047-049-050-058-095>099-060100-
WEST-CENTRAL ILLINOIS

CITY           SKY/WX    TMP DP  RH WIND       PRES   REMARKS
QUINCY         CLEAR     35  34  96 E6        29.86S FOG     WCI  30
GALESBURG*     CLOUDY    35  33  95 SE5       29.91S WCI  31
MACOMB*        CLOUDY    37  35  95 SE9       29.91F WCI  30
JACKSONVILLE*  PTCLDY    33  32  96 E7        29.88F WCI  27
$$

ILZ028>032-037-038-041>044-048-051>054-059>061-060100-
CENTRAL ILLINOIS

CITY           SKY/WX    TMP DP  RH WIND       PRES   REMARKS
BLOOMINGTON    CLOUDY    35  33  92 SE7       29.95S WCI  29
DECATUR        PTCLDY    32  31  96 E6        29.93F FOG     WCI  26
PEORIA         CLOUDY    35  33  92 SE7       29.95R WCI  29
6HR MIN TEMP:  35; 6HR MAX TEMP:  36;

SPRINGFIELD    CLOUDY    37  34  89 E9        29.91F WCI  30
6HR MIN TEMP:  36; 6HR MAX TEMP:  41;

TAYLORVILLE    NOT AVBL
$$

ILZ033-039-045-046-055>057-062-063-060100-
EAST-CENTRAL ILLINOIS

CITY           SKY/WX    TMP DP  RH WIND       PRES   REMARKS
CHAMPAIGN      CLOUDY    35  32  88 E9        29.94F WCI  28
MATTOON        CLEAR     35  31  85 SE7       29.92F WCI  29
$$

ILZ079-100>102-060100-
SOUTHWEST ILLINOIS

CITY           SKY/WX    TMP DP  RH WIND       PRES   REMARKS
ALTON          PTCLDY    37  34  87 E6        29.88F WCI  33
BELLEVILLE     PTCLDY    38  36  94 E8        29.88F WCI  32
CAHOKIA*       PTCLDY    40  34  79 E9        29.88F
SPARTA*        PTCLDY    37  33  87 E8        29.89F WCI  31
$$

ILZ064>066-069>071-074>076-080>082-084>086-088>090-092>094-060100-
SOUTH-CENTRAL ILLINOIS

CITY           SKY/WX    TMP DP  RH WIND       PRES   REMARKS
CARBONDALE     CLOUDY    40  36  86 E8        29.89F
6HR MIN TEMP:  40; 6HR MAX TEMP:  43;

CAIRO*         PTCLDY    40  36  87 NE5       29.87F
MARION         MOCLDY    41  37  87 E9        29.90F
CENTRALIA*     CLOUDY    38  36  89 E8        29.89F WCI  33
SALEM*         CLOUDY    39  34  83 E5        29.90F
$$

ILZ067-068-072-073-078-083-087-091-060100-
SOUTHEAST ILLINOIS

CITY           SKY/WX    TMP DP  RH WIND       PRES   REMARKS
LAWRENCEVILLE  CLOUDY    36  33  89 E6        29.95F WCI  31
HARRISBURG*    CLOUDY    40  37  87 E8        29.91F
ROBINSON*      CLEAR     35  32  89 E6        29.95F WCI  30
CARMI*         CLOUDY    39  37  91 NE5       29.92F
$$

ABBREVIATIONS USED IN REMARKS
   TC - TEMPERATURE IN CELSIUS
  WCI - WIND CHILL INDEX
   HX - HEAT INDEX
  VSB - VISIBILITY
$$





USA.gov is the U.S. government's official web portal to all federal, state and local government web resources and services.